Regional Weather Roundup
Issued by NWS

Home | Current Version | Previous Version | Text Only | Print | Product List | Glossary On
Versions: 1 2 3 4 5 6 7 8 9 10 11 12 13 14 15 16 17 18 19 20 21 22 23 24 25 26 27 28 29 30 31 32 33 34 35 36 37 38 39 40 41 42 43 44 45 46 47 48 49 50
000
ASUS43 KDTX 242010
RWRMI
MICHIGAN HOURLY REGIONAL WEATHER ROUNDUP
NATIONAL WEATHER SERVICE DETROIT/PONTIAC MI
400 PM EDT SUN JUL 24 2016

NOTE: "FAIR" INDICATES FEW OR NO CLOUDS BELOW 12,000 FEET WITH NO
SIGNIFICANT WEATHER AND/OR OBSTRUCTION TO VISIBILITY.

MIZ047>049-052>055-059>063-066>070-074>076-081>083-242100-
SOUTHEAST LOWER MICHIGAN

CITY           SKY/WX    TMP DP  RH WIND       PRES   REMARKS
ADRIAN         CLOUDY    79  72  79 SW9       29.94F
ALMA           CLOUDY    80  74  82 SW7G17    29.87S
ANN ARBOR      CLOUDY    81  73  76 S8        29.93F
BAD AXE        PTSUNNY   81  69  66 SW15      29.91R
CARO           PTSUNNY   79  71  74 SW3       29.91R
DETROIT CITY   PTSUNNY   77  71  82 SW8       29.94F
DETROIT        PTSUNNY   79  70  74 SW5       29.94F
FLINT          MOSUNNY   85  71  63 SW10      29.91F HX  90
GROSSE ILE     CLOUDY    79  70  74 SW5       29.93F
HOWELL         CLOUDY    77  72  85 S7        29.91F

CITY           SKY/WX    TMP DP  RH WIND       PRES   REMARKS
JACKSON        CLOUDY    82  76  81 SW10      29.93F
LAMBERTVILLE   MOSUNNY   78  72  80 W3        29.94S
LANSING        MOSUNNY   81  71  71 SW20G28   29.89F
LAPEER         FAIR      79  69  71 SW6       29.93R
MASON          CLOUDY    81  73  76 SW10G18   29.90F
MONROE         CLOUDY    80  73  78 W10       29.93S
MT. CLEMENS    MOSUNNY   79  71  76 SW7       29.91F
PONTIAC        CLOUDY    77  70  79 S8        29.91F
PORT HOPE        N/A     82  70  66 W6        29.88R
PORT HURON     CLOUDY    77  73  88 S6        29.92F
TRI CITIES     CLOUDY    81  72  74 S6        29.89S
MIDLAND        FAIR      80  70  72 S9        29.87F
TROY           CLOUDY    77  69  76 SW5       29.95F
SAGINAW HB     CLOUDY    81  70  69 S8        29.89F
$$
MIZ043>046-050>051-056>058-064>065-071>073-077>080-242100-
SOUTHWEST LOWER MICHIGAN

CITY           SKY/WX    TMP DP  RH WIND       PRES   REMARKS
BATTLE CREEK   CLOUDY    80  77  90 S12       29.93F
BENTON HARBOR  CLOUDY    90  77  65 S14G21    29.88F HX 103
BIG RAPIDS     MOSUNNY   84  76  76 SW10G21   29.85F HX  92
COLDWATER      MOSUNNY   82  75  78 S6        29.94S
FREMONT        PTSUNNY   86  79  79 SW21      29.85S HX  99
HOLLAND        PTSUNNY   88  76  67 S14       29.88F HX  99
GRAND RAPIDS   PTSUNNY   85  74  69 S20       29.88F HX  92
IONIA          FAIR      83  70  65 S21G28    29.86F
KALAMAZOO      MOSUNNY   86  75  69 S14       29.91F HX  95
LUDINGTON      CLOUDY    82  74  78 SW20G25   29.82S
MARSHALL       MOSUNNY   81  76  85 S6        29.93F
MOUNT PLEASANT CLOUDY    80  72  77 SE3       29.86F
MUSKEGON       MOSUNNY   88  75  65 S22G32    29.84F HX  97
SOUTH HAVEN    CLOUDY    88  77  70 SW13G20   29.88F HX 100
$$
MIZ016>042-242100-
NORTHERN LOWER MICHIGAN

CITY           SKY/WX    TMP DP  RH WIND       PRES   REMARKS
ALPENA         MOSUNNY   84  68  58 SW8       29.83F
BEAVER ISLAND  CLOUDY    72  69  90 SW12G18   29.80F
BELLAIRE       CLOUDY    82  70  67 CALM      29.81S
CADILLAC       CLOUDY    80  71  75 SW17      29.85F
CHARLEVOIX     CLOUDY    81  70  68 SW7       29.83F
FRANKFORT      CLOUDY    77  70  78 S12G24    29.81F
GAYLORD        PTSUNNY   83  68  60 SW12G23   29.85F
GRAYLING       CLOUDY    81  71  71 SW7       29.87S
HARBOR SPRINGS CLOUDY    77  70  79 CALM      29.81F
HOUGHTON LAKE  CLOUDY    77  70  79 S7        29.88F
MANISTEE       CLOUDY    80  73  79 SW13G23   29.81F
OSCODA         CLOUDY    82  70  65 SW15G24   29.85F
PELLSTON       CLOUDY    78  69  73 S6        29.81F
ROGERS CITY    CLOUDY    81  70  68 SW10      29.82S
TRAVERSE CITY  CLOUDY    83  71  67 SW10      29.79F
$$
MIZ007>008-015-242100-
EASTERN UPPER MICHIGAN

CITY           SKY/WX    TMP DP  RH WIND       PRES   REMARKS
KINROSS        CLOUDY    73  71  93 VRB7      29.81F
MACKINAC ISLAN CLOUDY    72  72 100 W3        29.82S
NEWBERRY       CLOUDY    71  70  97 SW10G18   29.78F FOG
S. S. MARIE    CLOUDY    72  70  93 SE5       29.80S FOG
MUNISING         N/A     83  74  74 S8G20     29.73S
$$
MIZ004>006-011>014-085-242100-
CENTRAL UPPER MICHIGAN

CITY           SKY/WX    TMP DP  RH WIND       PRES   REMARKS
MANISTIQUE     CLOUDY    70  69  97 SW9       29.77F
ESCANABA         N/A    N/A N/A N/A MISG        N/A
MENOMINEE      CLOUDY    80  76  87 SW8       29.78S
SAWYER-GWINN   PTSUNNY   84  70  61 W14G20    29.76F
$$
MIZ001>003-009>011-084-242100-
WESTERN UPPER MICHIGAN

CITY           SKY/WX    TMP DP  RH WIND       PRES   REMARKS
IRON MOUNTAIN  PTSUNNY   84  72  67 SW9       29.78S
HOUGHTON       MOSUNNY   80  67  64 W17       29.75S
COPPER HARBOR    N/A     73  67  81 N15       29.71F
IRONWOOD       MOSUNNY   81  64  57 NW13      29.78S
$$

ABBREVIATIONS USED IN REMARKS
   TC - TEMPERATURE IN CELSIUS
  WCI - WIND CHILL INDEX
   HX - HEAT INDEX
  VSB - VISIBILITY




USA.gov is the U.S. government's official web portal to all federal, state and local government web resources and services.